Location: Newark
(45.0500°N, 41.9667°E)
Time: 07:34:40
(UTC+00:00)

Starlink (trailer) - Pass Details

Date: 26 July 2019
Orbit: 549 x 551 km, 53.0° (Epoch: 23 August)

Event Time Altitude Azimuth Distance (km) Brightness Sun altitude
Exits shadow 22:33:11 - 288° (WNW) 1,963 6.4 -23.4°
Reaches altitude 10° 22:33:35 10° 291° (WNW) 1,825 6.3 -23.4°
Maximum altitude 22:37:12 28° 352° (N) 1,045 5.6 -23.2°
Drops below altitude 10° 22:40:50 10° 53° (NE) 1,828 7.1 -23.0°
Sets 22:43:19 0° 65° (ENE) 2,723 7.9 -22.8°
